Siga o Apolo11 no Facebook   Siga o Apolo11 no Twiiter
Ciência, Espaço e Tecnologia




Elementos Keplerianos formato Two Line

Para que um programa de rastreio possa saber a localização exata de qualquer satélite no espaço e assim poder rastreá-lo corretamente, é necessário que ele seja carregado com algumas informações.

Estas informações são chamadas de Elementos Orbitais ou Elementos Keplerianos e consistem em 2 linhas com dezenas de números. Esses números nada mais são que os parâmetros orbitais do satélite, tais como altitude, atitude, excentricidade da órbita, número de órbitas por dia, etc.

Com base nestas informações o programa é capaz de determinar com bastante exatidão a posição de qualquer satélite no espaço e nos informar em qual horário este estará dentro do alcance de nossa estação. Para que isso seja feito com precisão é necessário que os dados estejam sempre bem atualizadas.

Devido aos parâmetros orbitais serem descritos em 2 linhas, estes formato é também conhecido internacionalmente por 2line (leia-se Two Line”).

Para atualizar seu programa de rastreio basta copiar os dados disponibilizados e fornece-los ao programa. Nossos elementos orbitais são atualizados diariamente.

NOAATodos os satélites ambientais da série NOAA
30 DiasSatélites lançados nos últimos 30 dias
ISSSatélites e foguetes relacionados à Estação Espacial Internacional
HAMSatélites construídos por radiomadores
CUBESatélites tipo cubo, com 10 centímetros de lado
METEOSatélites voltados à previsão do tempo
EDUSatélites construídos e operados por universidades
VIS100 satélites mais brilhantes que podem ser vistos a olho nú



Satélites Educacionais
SAUDISAT 1C             
1 27607U 02058C   23080.69614193  .00002525  00000+0  36078-3 0  9999
2 27607  64.5559 173.1029 0075956 242.0139 117.3264 14.76977018 89308
SAUDISAT 2              
1 28371U 04025F   23081.11132293  .00000675  00000+0  16789-3 0  9999
2 28371  98.4190  44.0424 0024943 333.8623  26.1316 14.54825019993652
SAUDISAT 3              
1 31118U 07012B   23080.38563801  .00000762  00000+0  13631-3 0  9992
2 31118  98.0048  26.2851 0015984  38.5503 321.6841 14.69581627853774
PISAT                   
1 41784U 16059B   23080.81434358  .00001490  00000+0  28814-3 0  9993
2 41784  97.8811 117.8903 0031648  14.6038 345.6073 14.64455049346275
FLYING LAPTOP           
1 42831U 17042G   23081.09205902  .00002084  00000+0  20659-3 0  9991
2 42831  97.3968 284.0721 0013999 153.3584 206.8366 14.92731754309495
SALSAT                  
1 46495U 20068K   23080.82384809  .00006363  00000+0  43108-3 0  9995
2 46495  97.7616  28.0111 0017672  60.5512 299.7476 15.06705335135919


IMAGENS DE SATÉLITES !    Clique e conheça nosso Vídeo Workshop de sensoriamento remoto e imagens meteorológicas.
Apolo11.com - Todos os direitos reservados - 2001 - 2023
Política de Privacidade

"Prefiro ser um oportunista e flutuar do que ir ao fundo com meus princípios amarrados até o pescoço" - Stanley Baldwin